Location: Newark
(45.6000°N, 12.8833°E)
Time: 02:34:48
(UTC+00:00)

Explorer 11/Cluster Stage 4 - All Passes

Search period start: 16 November 2019 00:00
Search period end: 26 November 2019 00:00
Orbit: 467 x 1259 km, 28.8° (Epoch: 14 November)

Date Brightness Start Highest point End Pass type
(mag) Time Alt. Az. Time Alt. Az. Time Alt. Az.
16 Nov - 00:14:10 10° SW 00:19:13 18° SSW 00:24:20 10° SSE night (unlit)
16 Nov - 20:27:51 10° SSW 20:32:14 18° SSE 20:37:01 10° SE night (unlit)
16 Nov - 22:14:43 10° SW 22:20:10 22° S 22:25:59 10° SE night (unlit)
17 Nov - 00:03:34 10° SW 00:08:13 17° SSW 00:12:58 10° SSE night (unlit)
17 Nov - 20:17:01 10° SSW 20:21:17 18° SSE 20:26:00 10° SE night (unlit)
17 Nov - 22:04:01 10° SW 22:09:12 21° S 22:14:49 10° SE night (unlit)
17 Nov - 23:53:05 10° SW 23:57:14 15° SSW 00:01:29 10° SSE night (unlit)
18 Nov - 20:06:14 10° SSW 20:10:22 18° SSE 20:14:57 10° SE night (unlit)
18 Nov - 21:53:22 10° SW 21:58:15 20° S 22:03:35 10° SE night (unlit)
18 Nov - 23:42:47 10° SW 23:46:14 13° SSW 23:49:48 10° S night (unlit)
19 Nov - 19:55:32 10° SSW 19:59:28 17° S 20:03:51 10° SE visible
19 Nov - 21:42:48 10° SW 21:47:20 18° S 21:52:18 10° SE night (unlit)
19 Nov - 23:32:48 10° SW 23:35:16 12° SSW 23:37:47 10° S night (unlit)
20 Nov - 19:44:54 10° SSW 19:48:36 17° S 19:52:44 10° SE visible
20 Nov - 21:32:19 10° SW 21:36:25 17° S 21:40:54 10° SSE night (unlit)
21 Nov - 19:34:19 10° SSW 19:37:45 16° S 19:41:33 10° SE visible
21 Nov - 21:21:57 10° SW 21:25:32 15° S 21:29:25 10° SSE night (unlit)
22 Nov - 19:23:50 10° SSW 19:26:55 15° S 19:30:20 10° SE visible
22 Nov - 21:11:45 10° SW 21:14:39 13° S 21:17:47 10° SSE night (unlit)
23 Nov - 19:13:25 10° SSW 19:16:06 14° S 19:19:03 10° SSE visible
23 Nov - 21:01:52 10° SSW 21:03:48 11° SSW 21:05:50 10° S night (unlit)
24 Nov - 19:03:08 10° SSW 19:05:19 13° S 19:07:40 10° SSE visible
25 Nov - 18:53:04 10° SSW 18:54:33 11° S 18:56:05 10° SSE visible
